Regional Weather Roundup
Issued by NWS

Home | Current Version | Previous Version | Graphics & Text | Print | Product List | Glossary On
Versions: 1 2 3 4 5 6 7 8 9 10 11 12 13 14 15 16 17 18 19 20 21 22 23 24 25 26 27 28 29 30 31 32 33 34 35 36 37 38 39 40 41 42 43 44 45 46 47 48 49 50
000
ASUS43 KMPX 192201
RWRMN
WEATHER ROUNDUP FOR MINNESOTA
NATIONAL WEATHER SERVICE TWIN CITIES/CHANHASSEN MN
400 PM CST SUN FEB 19 2017


NOTE: "FAIR" INDICATES FEW OR NO CLOUDS BELOW 12,000 FEET WITH NO
SIGNIFICANT WEATHER AND/OR OBSTRUCTIONS TO VISIBILITY. N/A MEANS
CURRENT SKY AND/OR WEATHER CONDITIONS ARE NOT AVAILABLE.

MNZ060>063-068>070-192300-
   Twin Cities Metro

CITY           SKY/WX    TMP DP  RH WIND       PRES   REMARKS
TWIN CITIES    CLOUDY    59  40  49 SE15      29.88S
ST PAUL        MOSUNNY   57  41  55 SE14      29.89F
CRYSTAL        CLOUDY    70  39  32 SE15      29.86F
BLAINE         PTSUNNY   59  39  47 SE14G21   29.87F
LAKEVILLE      PTSUNNY   55  45  67 SE12      29.88S
EDEN PRAIRIE   CLOUDY    58  42  55 SE15      29.85S
SOUTH ST PAUL  MOSUNNY   58  40  51 SE6       29.89F
LAKE ELMO      FAIR      55  41  58 SE14      29.90F
$$
MNZ001>005-007-008-013>017-022>024-027-028-192300-
   Northwest Minnesota

CITY           SKY/WX    TMP DP  RH WIND       PRES   REMARKS
BEMIDJI        LGT RAIN  45  32  60 SE9       29.77S
HALLOCK        MOSUNNY   43  34  70 E18       29.66F
ROSEAU         MOSUNNY   41  34  75 E12       29.76F
WARROAD        MOSUNNY   39  34  81 E12       29.80S
THIEF RVR FALL CLOUDY    42  33  70 E16       29.70F
CROOKSTON      MOSUNNY   46  37  71 SE13      29.66F
FOSSTON        CLOUDY    48  34  57 SE16G25   29.70S
DETROIT LAKES  CLOUDY    50  37  62 SE18      29.71S
MOORHEAD       SUNNY     54  45  71 SE14G23   29.64F
PARK RAPIDS    CLOUDY    50  32  50 SE10      29.76S
MAHNOMEN       FAIR      52  38  58 SE21G28   29.68F
$$
MNZ006-009>011-018-025>026-192300-
   North Central Minnesota

CITY           SKY/WX    TMP DP  RH WIND       PRES   REMARKS
BAUDETTE       CLOUDY    42  30  62 E14       29.81F
FLAG ISLAND    CLOUDY    43  28  56 E10G18    29.82F
INTL FALLS     LGT RAIN  44  30  57 E12       29.87F
WASKISH        SUNNY     52  30  43 SE10      29.80S
BIG FORK       SUNNY     50  28  43 SE10G16   29.84F
LONGVILLE      MOSUNNY   52  30  43 SE3       29.81S
GRAND RAPIDS   MOSUNNY   51  30  44 SE9       29.87S
CRANE LAKE     CLOUDY    46  28  49 CALM      29.93F
ORR            CLOUDY    52  25  35 CALM      29.86F
COOK           PTSUNNY   54  28  37 E7        29.89F
WALKER         FAIR      44  32  61 E3        29.79S
$$
MNZ012-019>021-037-192300-
   Northeast Minnesota

CITY           SKY/WX    TMP DP  RH WIND       PRES   REMARKS
DULUTH         MOSUNNY   42  31  64 E10       29.93F
ELY            CLOUDY    45  28  53 SE12      29.94F
HIBBING        CLOUDY    46  28  49 SE14      29.89F
EVELETH        MOSUNNY   53  23  31 E8        29.91F
DULUTH HARBOR  MOSUNNY   36  34  93 CALM      29.99S
TWO HARBORS    PTSUNNY   45  34  65 E13       29.96F
GRAND MARAIS     N/A     38  30  73 E7        30.06R
G MARAIS ARPRT CLOUDY    36  25  64 E5        30.02R
$$
MNZ029>031-032-039>041-046>048-054>057-064-192300-
   West Central Minnesota

CITY           SKY/WX    TMP DP  RH WIND       PRES   REMARKS
FERGUS FALLS   CLOUDY    55  45  67 SE22G29   29.71S
WHEATON        MOSUNNY   55  48  76 SE23      29.65F
MORRIS         MOSUNNY   55  50  82 SE23G29   29.68F
ALEXANDRIA     CLOUDY    53  44  71 SE20      29.75F
ELBOW LAKE     FAIR      53  45  73 SE17G25   29.70S
WADENA         CLOUDY    50  39  66 SE16      29.75S
GLENWOOD       CLOUDY    54  46  76 SE16      29.76F
APPLETON       CLOUDY    57  48  72 SE16      29.69F
BENSON         MOSUNNY   59  46  63 S13G18    29.75F
ORTONVILLE     CLOUDY    57  50  77 SE17G24   29.65F
WILLMAR        FAIR      55  50  82 CALM      29.78F
$$
MNZ033>034-036-042>043-049>051-058-059-192300-
   Central Minnesota

CITY           SKY/WX    TMP DP  RH WIND       PRES   REMARKS
ST CLOUD       CLOUDY    57  41  55 SE10      29.83R
SAUK CENTRE    FAIR      53  44  71 SE16G22   29.78F
PAYNESVILLE    CLOUDY    55  43  64 SE12G18   29.80S
AITKIN         MOSUNNY   55  30  38 E8        29.83S
PINE RIVER     CLOUDY    48  36  61 SE12      29.85R
BRAINERD       MOSUNNY   51  35  54 SE10      29.82F
STAPLES        MOSUNNY   54  36  50 SE12      29.78S
LONG PRAIRIE   FAIR      52  41  66 E12G17    29.78F
LITTLE FALLS   CLOUDY    55  36  47 SE13G21   29.81F
LITCHFIELD     MOSUNNY   57  46  67 SE15G21   29.82R
BUFFALO        MOSUNNY   57  41  55 E14       29.84F
MAPLE LAKE     CLOUDY    56  44  62 SE9       29.84S
HUTCHINSON     MOSUNNY   59  49  70 E10       29.82F
$$
MNZ037-044-045-052-053-192300-
   East Central Minnesota

CITY           SKY/WX    TMP DP  RH WIND       PRES   REMARKS
PRINCETON      CLOUDY    61  37  41 E13G18    29.85S
MORA           MOSUNNY   54  36  50 SE7       29.89S
CAMBRIDGE      MOSUNNY   61  41  48 SE7       29.85F
RUSH CITY      PTSUNNY   55  37  50 SE9       29.89S
MOOSE LAKE     MOSUNNY   50  32  50 NE5       29.88F
HINCKLEY       FAIR      55  34  44 SE7       29.89S
CLOQUET        CLOUDY    39  28  65 E14       29.92F
MCGREGOR       CLOUDY    52  32  46 SE10      29.87S
$$
MNZ071>073-080-081-089-090-097-098-192300-
   Southwest Minnesota

CITY           SKY/WX    TMP DP  RH WIND       PRES   REMARKS
MONTEVIDEO     CLOUDY    57  52  82 S17       29.74F
GRANITE FALLS  CLOUDY    60  52  75 SE14G22   29.75F
CANBY          CLOUDY    64  49  56 S14       29.70S
MARSHALL       MOSUNNY   64  51  62 S23       29.71F
REDWOOD FALLS  MOSUNNY   62  51  67 SE20      29.77F
OLIVIA         MOSUNNY   55  50  82 SE14      29.77F
PIPESTONE      SUNNY     63  48  59 S17G23    29.72R
WINDOM         MOSUNNY   63  52  67 SE18G28   29.78S
WORTHINGTON    SUNNY     61  50  67 S18       29.77S
JACKSON        MOSUNNY   61  50  67 SE15G23   29.80F
TRACY          CLOUDY    63  53  70 S15G23    29.75F
SLAYTON        SUNNY     62  53  72 SE24G30   29.75S
$$
MNZ065>067-074>077-082>085-091>093-192300-
   South Central Minnesota

CITY           SKY/WX    TMP DP  RH WIND       PRES   REMARKS
MANKATO          N/A     57  49  74 SE13      29.84S
NEW ULM        PTSUNNY   59  50  72 SE13G18   29.81S
ST JAMES       CLOUDY    61  54  77 SE15      29.82F
FAIRMONT       PTSUNNY   62  54  74 S15       29.83R
GLENCOE        PTSUNNY   58  50  74 E12       29.83S
FARIBAULT      MOSUNNY   57  46  67 SE16      29.88S
OWATONNA       CLOUDY    55  45  67 SE14      29.88S
WASECA         CLOUDY    55  48  76 SE15      29.88R
ALBERT LEA     MOSUNNY   57  48  72 SE13      29.87F
$$
MNZ078>079-086>088-094>096-192300-
   Southeast Minnesota

CITY           SKY/WX    TMP DP  RH WIND       PRES   REMARKS
ROCHESTER      MOSUNNY   55  46  71 SE10      29.92S
RED WING       PTSUNNY   57  36  44 SE12      29.90F
STANTON        MOSUNNY   58  42  55 SE12G17   29.88S
DODGE CENTER   MOSUNNY   54  46  76 SE14      29.90F
WINONA         MOSUNNY   59  36  41 SE7       29.94F
AUSTIN         MOSUNNY   54  46  76 SE7       29.89F
PRESTON        MOSUNNY   56  42  60 SE7       29.93F
$$
ABBREVIATIONS USED IN REMARKS
   TC - TEMPERATURES IN CELSIUS
  WCI - WIND CHILL INDEX
   HX - HEAT INDEX
  VSB - VISIBILITY
$$



USA.gov is the U.S. government's official web portal to all federal, state and local government web resources and services.